Weather in Ōtsu

Japan     35°00′54″N   135°51′33″E
temp.,
°C
wind,
m/s
gust,
m/s
humid.,
%
clouds,
%
prec.,
mm/h
press.,
hPa
HPBL,
m
15 august, mon
mon1500:00+25nne119260 1.9 101025
03:00+24ne1194100 2.1 100916
06:00+24w119698 3.0 100955
09:00+28sw2481100 5.3 1009538
12:00+32sw465567 0.1 10081694
15:00+33sw565138 0.1 10071822
18:00+30sw4764100 0.0 1007663
21:00+27wsw2778100 0.0 1008514
16 august, tue
tue1600:00+26sw2683100 0.0 1007476
03:00+26sw2884100 0.0 1007568
06:00+26sw3887100 0.1 1007556
09:00+29sw4772100 0.2 10081012
12:00+33wsw61051100 0.0 10061956
15:00+33wsw61149100 0.1 10062045
18:00+29wsw4968100 0.7 1007917
21:00+27sw3775100 1.6 1008545
17 august, wed
wed1700:00+25w128799 1.2 100856
03:00+25w1290100 2.8 100836
06:00+24nw1193100 3.5 100943
09:00+24sw1495100 9.9 1010207
12:00+24sw2496100 3.5 1011312
15:00+26sw2479100 4.2 1010780
18:00+25sw1286100 1.3 101031
21:00+24ssw1188100 1.4 101134
18 august, thu
thu1800:00+24se0090100 0.0 101015
03:00+23ssw1190100 0.2 100917
06:00+23ssw3694100 3.3 1010353
09:00+22ne1194100 6.7 1009134
12:00+24sse139070 2.4 1008472
15:00+28ssw357138 3.6 10061010
18:00+26wsw1286100 3.2 100659
21:00+24n1293100 6.9 100848
19 august, fri
fri1900:00+23nne119599 0.4 100731
03:00+23nne0195100 0.4 100516
06:00+23n0194100 0.0 100639
09:00+26n1184100 0.3 1006267
12:00+30ssw226273 0.4 10051119
15:00+31sw125499 0.9 10031606
18:00+27nne1177100 1.1 100416
21:00+25nne1286100 1.8 100527